Location: Austin
(30.3000°N, 97.7500°W)
Time: 04:05:55
(UTC-06:00)

YAOGAN 3 - Pass Details

Date: 20 November 2023
Orbit: 616 x 618 km, 97.9° (Epoch: 05 December)

Event Time Altitude Azimuth Distance (km) Brightness Sun altitude
Rises 19:09:44 0° 163° (SSE) 2,875 7.9 -20.9°
Reaches altitude 10° 19:11:54 10° 161° (SSE) 1,973 7.1 -21.4°
Maximum altitude 19:16:11 75° 76° (ENE) 643 4.4 -22.3°
Drops below altitude 10° 19:20:29 10° 352° (N) 1,983 7.1 -23.2°
Sets 19:22:41 0° 351° (N) 2,892 8.0 -23.7°
